Regional Weather Roundup
Issued by NWS

Home | Current Version | Previous Version | Graphics & Text | Print | Product List | Glossary On
Versions: 1 2 3 4 5 6 7 8 9 10 11 12 13 14 15 16 17 18 19 20 21 22 23 24 25 26 27 28
000
ASUS45 KBOU 300707
RWRCO

WEATHER ROUNDUP FOR COLORADO
NATIONAL WEATHER SERVICE DENVER/BOULDER CO
100 AM MDT THU OCT 30 2014

NOTE: "FAIR" INDICATES FEW OR NO CLOUDS BELOW 12000 FEET WITH NO
SIGNIFICANT WEATHER AND/OR OBSTRUCTIONS TO VISIBILITY.

COZ001>005-013-030-031-300800-
...NORTHWEST COLORADO...

CITY           SKY/WX    TMP DP  RH WIND       PRES   REMARKS
CRAIG          CLEAR     27  21  78 CALM      30.35R
HAYDEN         MOCLDY    36  19  51 E5        30.35R
MEEKER         CLEAR     33  24  69 CALM      30.36R
MOUNT WERNER   NOT AVBL
STEAMBOAT SPGS MOCLDY    33  24  69 CALM      30.36R
WALDEN         CLOUDY    36  23  60 E5        30.35S
$$

COZ006>008-011-300800-
...WEST CENTRAL VALLEYS...

CITY           SKY/WX    TMP DP  RH WIND       PRES   REMARKS
GRAND JUNCTION CLEAR     42  18  37 SE9       30.30S
MONTROSE       CLEAR     37  22  54 S9        30.36S
EAGLE          CLEAR     32  21  64 E5        30.39R WCI  27
RIFLE          CLEAR     35  21  56 SE3       30.35R
DELTA          CLEAR     38  22  53 CALM      30.34S
NUCLA          CLEAR     39  16  38 E6        30.38R
$$

COZ017>023-064>068-300800-
...SOUTHWEST COLORADO...

CITY           SKY/WX    TMP DP  RH WIND       PRES   REMARKS
DURANGO        CLEAR     33  21  61 N3        30.33S
CORTEZ         CLEAR     33  18  53 NE9       30.33R WCI  25
PAGOSA SPRINGS CLEAR     32  20  61 CALM      30.38S
TELLURIDE      CLEAR     37  12  36 SE6       30.47S
WOLF CREEK PAS CLEAR     34  14  44 SW8       30.54S WCI  27
$$

COZ009-010-012-014-032>034-037-058>063-300800-
...CENTRAL COLORADO...

CITY           SKY/WX    TMP DP  RH WIND       PRES   REMARKS
ASPEN          CLEAR     30  18  60 S8        30.39S WCI  22
BUENA VISTA    CLEAR     42  13  30 NW12      30.34F
COPPER MTN     CLEAR     34  16  47 W25       30.49S WCI  21
BERTHOUD PASS  FAIR      27  21  80 NW39G49   30.42S WCI   8
COTTONWOOD PAS CLEAR     43  10  26 NW10G23   30.40F
GUNNISON       PTCLDY    28  10  47 S5        30.42S WCI  23
KREMMLING      CLEAR     30  23  74 CALM        N/A
LEADVILLE      CLEAR     37  12  35 N20G25    30.42F
MONARCH PASS   CLEAR     32  12  43 W28       30.59S WCI  18
SALIDA         CLEAR     41  13  32 CALM      30.40S
SUNLIGHT       CLEAR     36  14  41 CALM      30.51S
WILKERSON PASS NOT AVBL
$$

COZ069>075-300800-
...SAN LUIS VALLEY/SANGRE DE CRISTO MOUNTAINS...

CITY           SKY/WX    TMP DP  RH WIND       PRES   REMARKS
ALAMOSA        PTCLDY    28  15  58 SW5       30.35R WCI  23
LA VETA PASS   CLEAR     39  10  30 S5        30.42S
SAGUACHE       PTCLDY    37  12  35 NW9       30.38R
$$

COZ035-036-038>040-300800-
...NORTHERN COLORADO FRONT RANGE...

CITY           SKY/WX    TMP DP  RH WIND       PRES   REMARKS
DENVER INTL AP PTCLDY    49  22  34 NW3       30.23R
DMNS CITY PARK   N/A     46  24  43 S3G9      30.24R
AURORA         PTCLDY    46  22  38 VRB6      30.25R
FRONT RANGE AP CLEAR     45  27  49 W5        30.24R
ERIE MUNI ARPT PTCLDY    39  25  56 CALM      30.22R
BOULDER MUN AP PTCLDY    50  23  34 CALM      30.22R
CENTENNIAL     PTCLDY    47  22  37 S12       30.24R
BROOMFIELD     PTCLDY    50  21  32 E3        30.24R
FORT COLLINS   CLEAR     54  28  37 N6        30.22R
LONGMONT       CLEAR     41  28  59 W3        30.24R
$$

COZ041-046-047-076>085-087-088-300800-
...PIKES PEAK/PALMER DIVIDE AND SOUTHERN FOOTHILLS...

CITY           SKY/WX    TMP DP  RH WIND       PRES   REMARKS
COLO. SPRINGS  PTCLDY    42  20  41 N5        30.26F
A. F. ACADEMY  PTCLDY    33  20  57 N9        30.27S WCI  26
ELLICOTT       CLEAR     38  18  44 E8        30.24S
FALCON         CLEAR     41  17  38 N6        30.29R
FORT CARSON    CLEAR     44  19  37 NW10      30.24R
LIMON          CLEAR     39  20  46 NW7       30.23R
MONUMENT HILL  PTCLDY    32  19  59 S5        30.28R WCI  27
TRINIDAD       CLEAR     45  17  32 W12       30.22S
$$

COZ042>045-048>051-090-091-300800-
...NORTHEAST COLORADO...

CITY           SKY/WX    TMP DP  RH WIND       PRES   REMARKS
GREELEY ARPT   CLEAR     52  27  37 N21       30.21R
AKRON          CLEAR     40  25  55 N13       30.18R
BURLINGTON     CLEAR     43  23  45 NW8       30.15S
WRAY           PTCLDY    38  24  55 W6        30.15R
STERLING       CLEAR     41  30  65 NW9       30.18R
HOLYOKE        PTCLDY    45  27  49 NW13      30.15R
FORT MORGAN    PTCLDY    46  24  40 N15       30.20R
$$

COZ086-089-092>099-300800-
...SOUTHEAST COLORADO...

CITY           SKY/WX    TMP DP  RH WIND       PRES   REMARKS
PUEBLO         CLEAR     41  22  46 S6        30.20R
LA JUNTA       CLEAR     42  24  49 W8        30.17R
LAMAR          CLEAR     34  26  72 SW9       30.12S WCI  27
SPRINGFIELD      N/A     38  29  70 NW12      30.12R
$$



USA.gov is the U.S. government's official web portal to all federal, state and local government web resources and services.